This is the latest recevied weather packets stored in our database for station/object SQ7ACP-3. If no packets are shown the sender has not sent any weather packets the latest 10 day(s).
| Time | Temp. | Humidity | Pressure | Rain* | Wind** | Luminosity | Snow |
|---|---|---|---|---|---|---|---|
| 1777640774 | 20° C | 37% | 1024.2 hPa | 0 mm | - | - | - |
| 1777640174 | 20° C | 38% | 1024.2 hPa | 0 mm | - | - | - |
| 1777639561 | 20.56° C | 39% | 1024.3 hPa | 0 mm | - | - | - |
| 1777638949 | 20.56° C | 35% | 1024.5 hPa | 0 mm | - | - | - |
| 1777638336 | 20° C | 39% | 1024.6 hPa | 0 mm | - | - | - |
| 1777637736 | 20.56° C | 39% | 1024.7 hPa | 0 mm | - | - | - |
| 1777637136 | 20° C | 37% | 1024.7 hPa | 0 mm | - | - | - |
| 1777636524 | 20° C | 39% | 1024.7 hPa | 0 mm | - | - | - |
| 1777635916 | 18.89° C | 40% | 1024.7 hPa | 0 mm | - | - | - |
| 1777635301 | 18.89° C | 41% | 1024.8 hPa | 0 mm | - | - | - |
| 1777634701 | 18.89° C | 42% | 1024.8 hPa | 0 mm | - | - | - |
| 1777634099 | 19.44° C | 40% | 1024.7 hPa | 0 mm | - | - | - |
| 1777633486 | 18.33° C | 41% | 1025 hPa | 0 mm | - | - | - |
| 1777632875 | 18.89° C | 42% | 1024.9 hPa | 0 mm | - | - | - |
| 1777632261 | 18.33° C | 41% | 1025 hPa | 0 mm | - | - | - |
| 1777631661 | 18.33° C | 42% | 1025 hPa | 0 mm | - | - | - |
| 1777631049 | 18.33° C | 43% | 1025 hPa | 0 mm | - | - | - |
| 1777630448 | 17.78° C | 43% | 1024.9 hPa | 0 mm | - | - | - |
| 1777629849 | 17.78° C | 44% | 1024.9 hPa | 0 mm | - | - | - |
| 1777628636 | 16.67° C | 45% | 1025.1 hPa | 0 mm | - | - | - |
| 1777628036 | 16.67° C | 44% | 1025.2 hPa | 0 mm | - | - | - |
| 1777627424 | 16.11° C | 44% | 1025.3 hPa | 0 mm | - | - | - |
| 1777626823 | 16.11° C | 44% | 1025.3 hPa | 0 mm | - | - | - |
| 1777626224 | 15.56° C | 45% | 1025.3 hPa | 0 mm | - | - | - |
| 1777625011 | 15° C | 45% | 1025.5 hPa | 0 mm | - | - | - |
* Rain latest hour (hover to see other rain measurements)
** Current wind speed in m/s (hover to see current wind gust speed)